KF5CFW Weather Reports


time (UTC)temp
F
wind
direction
speed
knots
gust
knots
rain 1hr
in
rain 24hr
in
rain mn
in
humidity
%
barometer
mb
20260902201542 102 356 0.0 0.9 0.00 0.00 0.00 35 1010.7
20260902200027 101 40 0.0 0.9 0.00 0.00 0.00 37 1010.9
20260902194532 101 6 0.0 1.7 0.00 0.00 0.00 38 1011.2
20260902193038 101 101 0.0 0.9 0.00 0.00 0.00 39 1011.3
20260902191520 100 23 0.0 0.9 0.00 0.00 0.00 40 1011.8
20260902190018 100 1 0.0 0.9 0.00 0.00 0.00 39 1011.9
20260902184517 100 77 0.0 1.7 0.00 0.00 0.00 39 1012.1
20260902183018 99 307 0.0 1.7 0.00 0.00 0.00 41 1012.3
20260902181510 99 67 0.0 0.9 0.00 0.00 0.00 40 1012.7
20260902180007 98 350 0.0 0.9 0.00 0.00 0.00 42 1013.0
20260902174503 98 84 0.0 0.9 0.00 0.00 0.00 43 1013.3
20260902173003 98 135 0.0 0.9 0.00 0.00 0.00 43 1013.5
20260902171604 97 221 0.0 1.7 0.00 0.00 0.00 43 1013.8
20260902170057 96 4 0.0 0.9 0.00 0.00 0.00 44 1014.0
20260902164552 95 41 0.0 0.9 0.00 0.00 0.00 47 1014.1
20260902163057 94 123 0.0 0.9 0.00 0.00 0.00 48 1014.2
20260902161543 93 134 0.0 0.9 0.00 0.00 0.00 50 1014.4
20260902160039 91 17 0.0 0.9 0.00 0.00 0.00 51 1014.4
20260902154537 90 103 0.0 0.9 0.00 0.00 0.00 53 1014.4
20260902153046 89 33 0.0 0.9 0.00 0.00 0.00 54 1014.4
20260902151529 88 150 0.0 0.9 0.00 0.00 0.00 57 1014.4
20260902150031 88 151 0.0 0.0 0.00 0.00 0.00 58 1014.4
20260902144527 87 126 0.0 0.9 0.00 0.00 0.00 58 1014.4
20260902143026 87 141 0.0 0.9 0.00 0.00 0.00 59 1014.5
20260902141525 85 141 0.0 0.0 0.00 0.00 0.00 59 1014.4
20260902140026 84 141 0.0 0.0 0.00 0.00 0.00 59 1014.4
20260902134533 83 142 0.0 0.0 0.00 0.00 0.00 57 1014.4
20260902133025 82 158 0.0 0.9 0.00 0.00 0.00 53 1014.4
20260902131537 81 136 0.0 0.9 0.00 0.00 0.00 49 1014.4
20260902130025 80 136 0.0 0.9 0.00 0.00 0.00 45 1014.0
20260902124519 79 136 0.0 0.0 0.00 0.00 0.00 43 1013.9
20260902123018 79 136 0.0 0.0 0.00 0.00 0.00 41 1013.7
20260902121517 79 136 0.0 0.0 0.00 0.00 0.00 42 1013.5
20260902120016 79 137 0.0 0.0 0.00 0.00 0.00 44 1013.6
20260902114516 79 137 0.0 0.0 0.00 0.00 0.00 46 1013.6
20260902113012 80 137 0.0 0.0 0.00 0.00 0.00 48 1013.6
20260902111510 80 136 0.0 0.0 0.00 0.00 0.00 48 1013.5
20260902110014 80 136 0.0 0.0 0.00 0.00 0.00 50 1013.6
20260902104510 80 136 0.0 0.0 0.00 0.00 0.00 51 1013.6
20260902103007 80 136 0.0 0.0 0.00 0.00 0.00 53 1013.5
20260902101506 80 137 0.0 0.0 0.00 0.00 0.00 53 1013.5
20260902100005 80 136 0.0 0.0 0.00 0.00 0.00 55 1013.4
20260902094502 81 136 0.0 0.0 0.00 0.00 0.00 58 1013.4
20260902093105 81 136 0.0 0.0 0.00 0.00 0.00 59 1013.4
20260902091559 82 136 0.0 0.0 0.00 0.00 0.00 60 1013.4
20260902084558 83 136 0.0 0.0 0.00 0.00 0.00 60 1013.4
20260902083053 83 136 0.0 0.9 0.00 0.00 0.00 60 1013.4
20260902081552 84 138 0.0 0.9 0.00 0.00 0.00 60 1013.4
20260902080051 84 154 0.0 0.0 0.00 0.00 0.00 60 1013.4
20260902074557 84 124 0.0 0.9 0.00 0.00 0.00 60 1013.4
20260902073047 85 158 0.0 0.9 0.00 0.00 0.00 60 1013.4
20260902071545 85 158 0.0 0.9 0.00 0.00 0.00 59 1013.5
20260902070044 85 145 0.0 0.9 0.00 0.00 0.00 59 1013.5
20260902064545 85 146 0.0 0.9 0.00 0.00 0.00 59 1013.5
20260902063041 86 152 0.0 0.9 0.00 0.00 0.00 59 1013.4
20260902061556 86 141 0.0 0.9 0.00 0.00 0.00 59 1013.3
20260902060049 86 145 0.0 1.7 0.00 0.00 0.00 58 1013.1
20260902054548 86 157 0.0 0.9 0.00 0.00 0.00 58 1013.1
20260902053041 87 148 0.0 1.7 0.00 0.00 0.00 58 1013.0
20260902051532 87 156 0.0 0.0 0.00 0.00 0.00 57 1012.9
20260902050032 88 148 0.0 1.7 0.00 0.00 0.00 56 1012.9
20260902044536 88 163 0.0 0.9 0.00 0.00 0.00 55 1013.0
20260902043029 89 148 0.0 0.9 0.00 0.00 0.00 54 1012.9
20260902041529 89 94 0.0 0.9 0.00 0.00 0.00 52 1012.7
20260902040028 89 148 0.0 0.0 0.00 0.00 0.00 52 1012.5
20260902034529 89 148 0.0 0.0 0.00 0.00 0.00 51 1012.6
20260902033027 90 148 0.0 0.0 0.00 0.00 0.00 51 1012.6
20260902031526 90 148 0.0 0.0 0.00 0.00 0.00 50 1012.5
20260902030025 90 148 0.0 0.0 0.00 0.00 0.00 51 1012.3
20260902024531 90 148 0.0 0.0 0.00 0.00 0.00 50 1012.0
20260902023025 90 148 0.0 0.0 0.00 0.00 0.00 49 1011.8
20260902021524 91 148 0.0 0.0 0.00 0.00 0.00 49 1011.7
20260902020023 91 148 0.0 0.0 0.00 0.00 0.00 48 1011.5
20260902014524 92 148 0.0 0.0 0.00 0.00 0.00 47 1011.3
20260902013023 92 148 0.0 0.0 0.00 0.00 0.00 46 1011.1
20260902011523 93 148 0.0 0.0 0.00 0.00 0.00 46 1011.0
20260902010022 93 148 0.0 0.9 0.00 0.00 0.00 45 1010.9
20260902004521 94 165 0.0 0.9 0.00 0.00 0.00 44 1010.9
20260902003022 95 127 0.0 0.9 0.00 0.00 0.00 44 1011.0
20260902001519 95 127 0.0 0.0 0.00 0.00 0.00 43 1011.0
20260902000017 96 127 0.0 0.0 0.00 0.00 0.00 42 1011.1
20260901234516 96 138 0.0 0.0 0.00 0.00 0.00 41 1011.3
20260901233016 97 95 0.0 0.9 0.00 0.00 0.00 39 1011.2
20260901231514 99 127 0.0 0.9 0.00 0.00 0.00 37 1011.2
20260901230014 102 144 0.0 0.9 0.00 0.00 0.00 36 1011.2
20260901224513 102 136 0.0 0.9 0.00 0.00 0.00 35 1011.2
20260901223012 101 154 0.0 0.9 0.00 0.00 0.00 35 1011.2
20260901221510 101 95 0.0 0.9 0.00 0.00 0.00 36 1011.3
20260901220015 100 62 0.0 1.7 0.00 0.00 0.00 36 1011.3
20260901214507 99 150 0.0 0.9 0.00 0.00 0.00 38 1011.5
20260901213011 100 44 0.0 0.0 0.00 0.00 0.00 37 1011.6
20260901211505 101 39 0.0 0.9 0.00 0.00 0.00 35 1011.8
20260901210004 101 151 0.0 0.9 0.00 0.00 0.00 35 1011.9
20260901204506 103 153 0.0 0.9 0.00 0.00 0.00 35 1012.0
20260901203002 102 348 0.0 0.9 0.00 0.00 0.00 35 1012.2